Time,TemperatureF,DewpointF,PressureIn,WindDirection,WindDirectionDegrees,WindSpeedMPH,WindSpeedGustMPH,Humidity,HourlyPrecipIn,Conditions,Clouds,dailyrainin,SoftwareType,DateUTC
2013-03-22 00:02:00,60.0,-99.9,29.90,SE,138,11.0,13.0,-999,-99.99,,,-99.99,,2013-03-22 05:02:00,
2013-03-22 00:12:00,60.0,-99.9,29.90,SE,132,12.0,13.0,-999,-99.99,,,-99.99,,2013-03-22 05:12:00,
2013-03-22 00:22:00,60.0,-99.9,29.90,SE,142,12.0,15.0,-999,-99.99,,,-99.99,,2013-03-22 05:22:00,
2013-03-22 00:32:00,60.0,-99.9,29.90,SE,139,13.0,15.0,-999,-99.99,,,-99.99,,2013-03-22 05:32:00,
2013-03-22 00:42:00,60.0,-99.9,29.90,SE,141,11.0,13.0,-999,-99.99,,,-99.99,,2013-03-22 05:42:00,
2013-03-22 00:52:00,60.0,-99.9,29.89,SE,132,13.0,15.0,-999,-99.99,,,-99.99,,2013-03-22 05:52:00,
2013-03-22 01:02:00,60.0,-99.9,29.89,SE,141,13.0,14.0,-999,-99.99,,,-99.99,,2013-03-22 06:02:00,
2013-03-22 01:13:00,60.0,-99.9,29.90,SE,142,13.0,14.0,-999,-99.99,,,-99.99,,2013-03-22 06:13:00,
2013-03-22 01:22:00,60.0,-99.9,29.89,SE,136,13.0,17.0,-999,-99.99,,,-99.99,,2013-03-22 06:22:00,
2013-03-22 01:32:00,60.0,-99.9,29.89,SE,126,12.0,14.0,-999,-99.99,,,-99.99,,2013-03-22 06:32:00,
2013-03-22 01:43:00,60.0,-99.9,29.89,SE,140,12.0,13.0,-999,-99.99,,,-99.99,,2013-03-22 06:43:00,
2013-03-22 01:52:00,60.0,-99.9,29.90,SE,141,12.0,14.0,-999,-99.99,,,-99.99,,2013-03-22 06:52:00,
2013-03-22 02:03:00,60.0,-99.9,29.90,SE,137,12.0,13.0,-999,-99.99,,,-99.99,,2013-03-22 07:03:00,
2013-03-22 02:12:00,60.0,-99.9,29.91,SE,138,11.0,13.0,-999,-99.99,,,-99.99,,2013-03-22 07:12:00,
2013-03-22 02:22:00,61.0,-99.9,29.91,SE,134,12.0,14.0,-999,-99.99,,,-99.99,,2013-03-22 07:22:00,
2013-03-22 02:32:00,61.0,-99.9,29.91,SE,133,12.0,14.0,-999,-99.99,,,-99.99,,2013-03-22 07:32:00,
2013-03-22 02:42:00,60.0,-99.9,29.90,SE,129,13.0,15.0,-999,-99.99,,,-99.99,,2013-03-22 07:42:00,
2013-03-22 02:52:00,61.0,-99.9,29.90,SE,136,11.0,12.0,-999,-99.99,,,-99.99,,2013-03-22 07:52:00,
2013-03-22 03:03:00,61.0,-99.9,29.90,SE,132,11.0,12.0,-999,-99.99,,,-99.99,,2013-03-22 08:03:00,
2013-03-22 03:13:00,61.0,-99.9,29.90,SE,137,12.0,13.0,-999,-99.99,,,-99.99,,2013-03-22 08:13:00,
2013-03-22 03:22:00,61.0,-99.9,29.91,SE,143,10.0,12.0,-999,-99.99,,,-99.99,,2013-03-22 08:22:00,
2013-03-22 03:32:00,61.0,-99.9,29.90,SE,132,11.0,12.0,-999,-99.99,,,-99.99,,2013-03-22 08:32:00,
2013-03-22 03:42:00,61.0,-99.9,29.89,SE,126,11.0,13.0,-999,-99.99,,,-99.99,,2013-03-22 08:42:00,
2013-03-22 03:52:00,61.0,-99.9,29.89,SE,143,12.0,14.0,-999,-99.99,,,-99.99,,2013-03-22 08:52:00,
2013-03-22 04:03:00,61.0,-99.9,29.88,SE,141,14.0,16.0,-999,-99.99,,,-99.99,,2013-03-22 09:03:00,
2013-03-22 04:12:00,61.0,-99.9,29.88,SE,142,15.0,16.0,-999,-99.99,,,-99.99,,2013-03-22 09:12:00,
2013-03-22 04:22:00,61.0,-99.9,29.87,SE,142,15.0,17.0,-999,-99.99,,,-99.99,,2013-03-22 09:22:00,
2013-03-22 04:33:00,61.0,-99.9,29.87,SE,136,16.0,17.0,-999,-99.99,,,-99.99,,2013-03-22 09:33:00,
2013-03-22 04:42:00,61.0,-99.9,29.87,SE,142,14.0,16.0,-999,-99.99,,,-99.99,,2013-03-22 09:42:00,
2013-03-22 04:53:00,61.0,-99.9,29.88,SE,130,14.0,15.0,-999,-99.99,,,-99.99,,2013-03-22 09:53:00,
2013-03-22 05:04:00,61.0,-99.9,29.88,SE,129,11.0,13.0,-999,-99.99,,,-99.99,,2013-03-22 10:04:00,
2013-03-22 05:12:00,61.0,-99.9,29.88,SE,137,13.0,15.0,-999,-99.99,,,-99.99,,2013-03-22 10:12:00,
2013-03-22 05:23:00,61.0,-99.9,29.88,SE,140,14.0,15.0,-999,-99.99,,,-99.99,,2013-03-22 10:23:00,
2013-03-22 05:33:00,62.0,-99.9,29.89,SE,139,14.0,16.0,-999,-99.99,,,-99.99,,2013-03-22 10:33:00,
2013-03-22 05:42:00,61.0,-99.9,29.90,SE,135,12.0,13.0,-999,-99.99,,,-99.99,,2013-03-22 10:42:00,
2013-03-22 05:52:00,58.0,-99.9,29.88,SE,128,14.0,19.0,-999,-99.99,,,-99.99,,2013-03-22 10:52:00,
2013-03-22 06:03:00,62.0,-99.9,29.88,SE,140,18.0,20.0,-999,-99.99,,,-99.99,,2013-03-22 11:03:00,
2013-03-22 06:12:00,62.0,-99.9,29.89,SE,142,19.0,20.0,-999,-99.99,,,-99.99,,2013-03-22 11:12:00,
2013-03-22 06:22:00,62.0,-99.9,29.89,SE,135,16.0,19.0,-999,-99.99,,,-99.99,,2013-03-22 11:22:00,
2013-03-22 06:33:00,62.0,-99.9,29.89,SE,138,18.0,20.0,-999,-99.99,,,-99.99,,2013-03-22 11:33:00,
2013-03-22 06:42:00,62.0,-99.9,29.88,SE,136,21.0,23.0,-999,-99.99,,,-99.99,,2013-03-22 11:42:00,
2013-03-22 06:52:00,62.0,-99.9,29.88,SE,134,22.0,24.0,-999,-99.99,,,-99.99,,2013-03-22 11:52:00,
2013-03-22 07:02:00,62.0,-99.9,29.88,SE,132,23.0,26.0,-999,-99.99,,,-99.99,,2013-03-22 12:02:00,
2013-03-22 07:12:00,62.0,-99.9,29.88,SE,126,23.0,25.0,-999,-99.99,,,-99.99,,2013-03-22 12:12:00,
2013-03-22 07:22:00,62.0,-99.9,29.89,ESE,119,20.0,26.0,-999,-99.99,,,-99.99,,2013-03-22 12:22:00,
2013-03-22 07:32:00,62.0,-99.9,29.89,ESE,119,22.0,25.0,-999,-99.99,,,-99.99,,2013-03-22 12:32:00,
2013-03-22 07:42:00,63.0,-99.9,29.89,ESE,118,22.0,25.0,-999,-99.99,,,-99.99,,2013-03-22 12:42:00,
2013-03-22 07:52:00,63.0,-99.9,29.90,ESE,118,22.0,25.0,-999,-99.99,,,-99.99,,2013-03-22 12:52:00,
2013-03-22 08:02:00,63.0,-99.9,29.89,SE,124,25.0,27.0,-999,-99.99,,,-99.99,,2013-03-22 13:02:00,
2013-03-22 08:13:00,63.0,-99.9,29.89,SE,125,25.0,28.0,-999,-99.99,,,-99.99,,2013-03-22 13:13:00,
2013-03-22 08:22:00,63.0,-99.9,29.89,ESE,121,24.0,28.0,-999,-99.99,,,-99.99,,2013-03-22 13:22:00,
2013-03-22 08:32:00,63.0,-99.9,29.89,ESE,121,27.0,29.0,-999,-99.99,,,-99.99,,2013-03-22 13:32:00,
2013-03-22 08:42:00,63.0,-99.9,29.89,SE,127,26.0,29.0,-999,-99.99,,,-99.99,,2013-03-22 13:42:00,
2013-03-22 08:53:00,63.0,-99.9,29.89,ESE,123,25.0,29.0,-999,-99.99,,,-99.99,,2013-03-22 13:53:00,
2013-03-22 09:03:00,63.0,-99.9,29.90,ESE,119,26.0,29.0,-999,-99.99,,,-99.99,,2013-03-22 14:03:00,
2013-03-22 09:12:00,63.0,-99.9,29.90,ESE,118,24.0,29.0,-999,-99.99,,,-99.99,,2013-03-22 14:12:00,
2013-03-22 09:22:00,63.0,-99.9,29.90,ESE,123,26.0,29.0,-999,-99.99,,,-99.99,,2013-03-22 14:22:00,
2013-03-22 09:32:00,63.0,-99.9,29.90,ESE,123,26.0,29.0,-999,-99.99,,,-99.99,,2013-03-22 14:32:00,
2013-03-22 09:43:00,63.0,-99.9,29.90,SE,126,29.0,32.0,-999,-99.99,,,-99.99,,2013-03-22 14:43:00,
2013-03-22 09:52:00,63.0,-99.9,29.89,SE,127,30.0,33.0,-999,-99.99,,,-99.99,,2013-03-22 14:52:00,
2013-03-22 10:03:00,64.0,-99.9,29.89,SE,127,28.0,32.0,-999,-99.99,,,-99.99,,2013-03-22 15:03:00,
2013-03-22 10:12:00,63.0,-99.9,29.89,SE,125,29.0,32.0,-999,-99.99,,,-99.99,,2013-03-22 15:12:00,
2013-03-22 10:22:00,64.0,-99.9,29.89,SE,126,29.0,32.0,-999,-99.99,,,-99.99,,2013-03-22 15:22:00,
2013-03-22 10:33:00,64.0,-99.9,29.89,SE,129,29.0,32.0,-999,-99.99,,,-99.99,,2013-03-22 15:33:00,
2013-03-22 10:43:00,64.0,-99.9,29.90,SE,128,28.0,32.0,-999,-99.99,,,-99.99,,2013-03-22 15:43:00,
2013-03-22 10:53:00,64.0,-99.9,29.89,SE,127,30.0,33.0,-999,-99.99,,,-99.99,,2013-03-22 15:53:00,
2013-03-22 11:03:00,64.0,-99.9,29.89,SE,128,28.0,32.0,-999,-99.99,,,-99.99,,2013-03-22 16:03:00,
2013-03-22 11:13:00,64.0,-99.9,29.90,SE,129,29.0,33.0,-999,-99.99,,,-99.99,,2013-03-22 16:13:00,
2013-03-22 11:23:00,64.0,-99.9,29.90,SE,132,26.0,31.0,-999,-99.99,,,-99.99,,2013-03-22 16:23:00,
2013-03-22 11:32:00,64.0,-99.9,29.90,SE,126,27.0,31.0,-999,-99.99,,,-99.99,,2013-03-22 16:32:00,
2013-03-22 11:42:00,64.0,-99.9,29.90,SE,129,26.0,30.0,-999,-99.99,,,-99.99,,2013-03-22 16:42:00,
2013-03-22 11:53:00,64.0,-99.9,29.90,SE,131,28.0,31.0,-999,-99.99,,,-99.99,,2013-03-22 16:53:00,
2013-03-22 12:03:00,64.0,-99.9,29.90,SE,128,27.0,30.0,-999,-99.99,,,-99.99,,2013-03-22 17:03:00,
2013-03-22 12:12:00,64.0,-99.9,29.91,SE,131,27.0,30.0,-999,-99.99,,,-99.99,,2013-03-22 17:12:00,
2013-03-22 12:23:00,64.0,-99.9,29.91,SE,127,26.0,30.0,-999,-99.99,,,-99.99,,2013-03-22 17:23:00,
2013-03-22 12:33:00,64.0,-99.9,29.91,SE,128,27.0,32.0,-999,-99.99,,,-99.99,,2013-03-22 17:33:00,
2013-03-22 12:43:00,64.0,-99.9,29.91,SE,128,26.0,29.0,-999,-99.99,,,-99.99,,2013-03-22 17:43:00,
2013-03-22 12:53:00,64.0,-99.9,29.90,SE,127,26.0,31.0,-999,-99.99,,,-99.99,,2013-03-22 17:53:00,
2013-03-22 13:02:00,64.0,-99.9,29.91,ESE,123,23.0,27.0,-999,-99.99,,,-99.99,,2013-03-22 18:02:00,
2013-03-22 13:12:00,64.0,-99.9,29.90,SE,124,22.0,26.0,-999,-99.99,,,-99.99,,2013-03-22 18:12:00,
2013-03-22 13:22:00,63.0,-99.9,29.89,ESE,114,22.0,26.0,-999,-99.99,,,-99.99,,2013-03-22 18:22:00,
2013-03-22 13:33:00,64.0,-99.9,29.89,ESE,118,24.0,27.0,-999,-99.99,,,-99.99,,2013-03-22 18:33:00,
2013-03-22 13:42:00,64.0,-99.9,29.89,ESE,120,24.0,27.0,-999,-99.99,,,-99.99,,2013-03-22 18:42:00,
2013-03-22 13:52:00,64.0,-99.9,29.88,ESE,111,21.0,25.0,-999,-99.99,,,-99.99,,2013-03-22 18:52:00,
2013-03-22 14:02:00,64.0,-99.9,29.88,ESE,112,23.0,27.0,-999,-99.99,,,-99.99,,2013-03-22 19:02:00,
2013-03-22 14:12:00,64.0,-99.9,29.87,ESE,112,21.0,26.0,-999,-99.99,,,-99.99,,2013-03-22 19:12:00,
2013-03-22 14:22:00,64.0,-99.9,29.86,ESE,118,22.0,24.0,-999,-99.99,,,-99.99,,2013-03-22 19:22:00,
2013-03-22 14:33:00,65.0,-99.9,29.86,SE,125,25.0,29.0,-999,-99.99,,,-99.99,,2013-03-22 19:33:00,
2013-03-22 14:43:00,65.0,-99.9,29.86,SE,127,25.0,29.0,-999,-99.99,,,-99.99,,2013-03-22 19:43:00,
2013-03-22 14:52:00,65.0,-99.9,29.86,SE,130,26.0,29.0,-999,-99.99,,,-99.99,,2013-03-22 19:52:00,
2013-03-22 15:02:00,65.0,-99.9,29.86,SE,128,25.0,28.0,-999,-99.99,,,-99.99,,2013-03-22 20:02:00,
2013-03-22 15:13:00,65.0,-99.9,29.85,SE,130,25.0,27.0,-999,-99.99,,,-99.99,,2013-03-22 20:13:00,
2013-03-22 15:22:00,65.0,-99.9,29.84,SE,130,24.0,28.0,-999,-99.99,,,-99.99,,2013-03-22 20:22:00,
2013-03-22 15:32:00,65.0,-99.9,29.84,SE,131,25.0,28.0,-999,-99.99,,,-99.99,,2013-03-22 20:32:00,
2013-03-22 15:43:00,65.0,-99.9,29.83,SE,128,25.0,28.0,-999,-99.99,,,-99.99,,2013-03-22 20:43:00,
2013-03-22 15:52:00,65.0,-99.9,29.84,SE,125,23.0,27.0,-999,-99.99,,,-99.99,,2013-03-22 20:52:00,
2013-03-22 16:03:00,65.0,-99.9,29.84,SE,128,23.0,27.0,-999,-99.99,,,-99.99,,2013-03-22 21:03:00,
2013-03-22 16:12:00,65.0,-99.9,29.84,SE,125,23.0,26.0,-999,-99.99,,,-99.99,,2013-03-22 21:12:00,
2013-03-22 16:22:00,65.0,-99.9,29.84,SE,125,22.0,25.0,-999,-99.99,,,-99.99,,2013-03-22 21:22:00,
2013-03-22 16:33:00,65.0,-99.9,29.84,SE,125,23.0,26.0,-999,-99.99,,,-99.99,,2013-03-22 21:33:00,
2013-03-22 16:43:00,65.0,-99.9,29.84,SE,126,22.0,26.0,-999,-99.99,,,-99.99,,2013-03-22 21:43:00,
2013-03-22 16:53:00,65.0,-99.9,29.83,ESE,121,22.0,24.0,-999,-99.99,,,-99.99,,2013-03-22 21:53:00,
2013-03-22 17:03:00,65.0,-99.9,29.83,ESE,121,23.0,26.0,-999,-99.99,,,-99.99,,2013-03-22 22:03:00,
2013-03-22 17:12:00,65.0,-99.9,29.83,ESE,119,24.0,27.0,-999,-99.99,,,-99.99,,2013-03-22 22:12:00,
2013-03-22 17:23:00,65.0,-99.9,29.83,ESE,118,23.0,27.0,-999,-99.99,,,-99.99,,2013-03-22 22:23:00,
2013-03-22 17:32:00,65.0,-99.9,29.83,ESE,116,22.0,26.0,-999,-99.99,,,-99.99,,2013-03-22 22:32:00,
2013-03-22 17:43:00,65.0,-99.9,29.83,ESE,116,24.0,27.0,-999,-99.99,,,-99.99,,2013-03-22 22:43:00,
2013-03-22 17:53:00,65.0,-99.9,29.83,ESE,114,23.0,26.0,-999,-99.99,,,-99.99,,2013-03-22 22:53:00,
2013-03-22 18:02:00,65.0,-99.9,29.84,ESE,114,22.0,25.0,-999,-99.99,,,-99.99,,2013-03-22 23:02:00,
2013-03-22 18:12:00,65.0,-99.9,29.84,ESE,115,24.0,28.0,-999,-99.99,,,-99.99,,2013-03-22 23:12:00,
2013-03-22 18:22:00,65.0,-99.9,29.84,ESE,115,24.0,28.0,-999,-99.99,,,-99.99,,2013-03-22 23:22:00,
2013-03-22 18:33:00,65.0,-99.9,29.84,ESE,112,23.0,27.0,-999,-99.99,,,-99.99,,2013-03-22 23:33:00,
2013-03-22 18:42:00,65.0,-99.9,29.84,ESE,114,27.0,31.0,-999,-99.99,,,-99.99,,2013-03-22 23:42:00,
2013-03-22 18:52:00,64.0,-99.9,29.84,ESE,112,25.0,29.0,-999,-99.99,,,-99.99,,2013-03-22 23:52:00,
2013-03-22 19:02:00,65.0,-99.9,29.84,ESE,112,24.0,30.0,-999,-99.99,,,-99.99,,2013-03-23 00:02:00,
2013-03-22 19:12:00,65.0,-99.9,29.84,ESE,113,25.0,29.0,-999,-99.99,,,-99.99,,2013-03-23 00:12:00,
2013-03-22 19:23:00,65.0,-99.9,29.84,ESE,111,25.0,29.0,-999,-99.99,,,-99.99,,2013-03-23 00:23:00,
2013-03-22 19:33:00,65.0,-99.9,29.84,ESE,109,25.0,30.0,-999,-99.99,,,-99.99,,2013-03-23 00:33:00,
2013-03-22 19:42:00,64.0,-99.9,29.84,ESE,106,22.0,28.0,-999,-99.99,,,-99.99,,2013-03-23 00:42:00,
2013-03-22 19:52:00,64.0,-99.9,29.85,ESE,106,24.0,30.0,-999,-99.99,,,-99.99,,2013-03-23 00:52:00,
2013-03-22 20:03:00,64.0,-99.9,29.85,ESE,108,27.0,31.0,-999,-99.99,,,-99.99,,2013-03-23 01:03:00,
2013-03-22 20:12:00,64.0,-99.9,29.85,ESE,106,26.0,32.0,-999,-99.99,,,-99.99,,2013-03-23 01:12:00,
2013-03-22 20:22:00,64.0,-99.9,29.85,ESE,109,25.0,29.0,-999,-99.99,,,-99.99,,2013-03-23 01:22:00,
2013-03-22 20:33:00,64.0,-99.9,29.85,ESE,110,24.0,28.0,-999,-99.99,,,-99.99,,2013-03-23 01:33:00,
2013-03-22 20:43:00,64.0,-99.9,29.85,ESE,108,28.0,33.0,-999,-99.99,,,-99.99,,2013-03-23 01:43:00,
2013-03-22 20:53:00,64.0,-99.9,29.85,ESE,110,28.0,34.0,-999,-99.99,,,-99.99,,2013-03-23 01:53:00,
2013-03-22 21:02:00,64.0,-99.9,29.85,ESE,109,27.0,32.0,-999,-99.99,,,-99.99,,2013-03-23 02:02:00,
2013-03-22 21:12:00,64.0,-99.9,29.85,ESE,110,26.0,31.0,-999,-99.99,,,-99.99,,2013-03-23 02:12:00,
2013-03-22 21:23:00,64.0,-99.9,29.86,ESE,112,28.0,32.0,-999,-99.99,,,-99.99,,2013-03-23 02:23:00,
2013-03-22 21:32:00,64.0,-99.9,29.86,ESE,113,28.0,32.0,-999,-99.99,,,-99.99,,2013-03-23 02:32:00,
2013-03-22 21:42:00,64.0,-99.9,29.85,ESE,112,31.0,34.0,-999,-99.99,,,-99.99,,2013-03-23 02:42:00,
2013-03-22 21:52:00,64.0,-99.9,29.85,ESE,112,28.0,33.0,-999,-99.99,,,-99.99,,2013-03-23 02:52:00,
2013-03-22 22:03:00,64.0,-99.9,29.85,ESE,114,30.0,34.0,-999,-99.99,,,-99.99,,2013-03-23 03:03:00,
2013-03-22 22:12:00,64.0,-99.9,29.86,ESE,113,28.0,33.0,-999,-99.99,,,-99.99,,2013-03-23 03:12:00,
2013-03-22 22:23:00,64.0,-99.9,29.86,ESE,115,27.0,32.0,-999,-99.99,,,-99.99,,2013-03-23 03:23:00,
2013-03-22 22:34:00,64.0,-99.9,29.86,ESE,114,27.0,32.0,-999,-99.99,,,-99.99,,2013-03-23 03:34:00,
2013-03-22 22:44:00,64.0,-99.9,29.86,ESE,115,29.0,33.0,-999,-99.99,,,-99.99,,2013-03-23 03:44:00,
2013-03-22 22:53:00,64.0,-99.9,29.86,ESE,117,29.0,34.0,-999,-99.99,,,-99.99,,2013-03-23 03:53:00,
2013-03-22 23:03:00,64.0,-99.9,29.86,ESE,118,29.0,33.0,-999,-99.99,,,-99.99,,2013-03-23 04:03:00,
2013-03-22 23:13:00,64.0,-99.9,29.86,ESE,119,27.0,31.0,-999,-99.99,,,-99.99,,2013-03-23 04:13:00,
2013-03-22 23:23:00,64.0,-99.9,29.85,ESE,117,28.0,33.0,-999,-99.99,,,-99.99,,2013-03-23 04:23:00,
2013-03-22 23:33:00,64.0,-99.9,29.86,ESE,118,30.0,33.0,-999,-99.99,,,-99.99,,2013-03-23 04:33:00,
2013-03-22 23:43:00,64.0,-99.9,29.85,ESE,116,27.0,32.0,-999,-99.99,,,-99.99,,2013-03-23 04:43:00,
2013-03-22 23:53:00,64.0,-99.9,29.86,ESE,114,28.0,31.0,-999,-99.99,,,-99.99,,2013-03-23 04:53:00,